SL-14 DEB, 45357

Orbit data source: Space-Track

SL-14 DEB, 45357 is space debris in LEO originally from a launch on Thu, 15 Aug 1991 UTC launched from the Plesetsk Missile And Space Complex (PKMTR). Debris objects in space refer to the collection of defunct objects orbiting the Earth. Examples of debris include non-operational satellites, rocket bodies, and fragments generated from explosions, collisions, or faulty payload assembly.

Loading next visibility...
Identifier
45357, 1991-056CR
Orbit
LEO
Country
Flag of CISCIS
Related business
Manufacturer
Unknown
Mission
Spacecraft
Bus & Motor
Unknown
Mass
Unknown
Launch date (UTC)
1991-08-15 (34 years ago)
Launch vehicle
Unknown
Launch site
Plesetsk Missile And Space Complex (PKMTR)
Object type
Payload
Rocket body
Debris
Shape & HBR
Unknown shape, 0.1 m
Radar Cross Section
Small (<0.1 m²)

Expand to show TLE details & history
Last TLE update: 2 days ago

TLE from 2 days ago
0 SL-14 DEB
1 45357U 91056CR  26035.39498491  .00001423  00000-0  26655-2 0  9994
2 45357  82.5659 189.7434 0080564 244.2886 114.9915 13.36998846288515
Epoch: 2026-02-04T09:28Z
TLE epoch observation values (Epoch: 2026-02-04T09:28:46.696Z)
Latitude
0.00007°
Longitude
-87.01334°
Altitude
1,149.241 km
Speed
7.266 km/s
True Right ascension
12h 38m 58s
True Declination
0° 00' 00"
Sunlit
Object was in full shadow at epoch
Visualization orbit readout
Latitude
Unknown
Longitude
Unknown
Altitude
Unknown
Speed
Unknown
Apparent Right ascension
Unknown
Apparent Declination
Unknown
Sunlit
N/A
Visualization observer readout
Local Sidereal Time
05:46:00
Azimuth
Unknown
Elevation
Unknown
Doppler factor
Unknown
Orbital elements
Apogee altitude
1,178.085 km
Perigee altitude
1,057.306 km
Semi-major axis
7,495.833 km
Eccentricity
0.00806
Inclination
82.5659°
RAAN
189.7434°
Arg. of periapsis
244.2886°
True anomaly
115.82468°
Mean anomaly
114.9915°
Eccentric anomaly
115.40845°
Mean motion
3.34436 °/min
Orbital period
107.64 mins
BSTAR
0.0026655
Loading maneuver chart data...
Computing Atmospheric mass density...
Loading historical data...
Loading historical data...
Loading historical data...
Loading historical data...
Loading historical data...
Loading historical data...
Loading historical data...

Documentation

Showing up to 5 results
|